Regional Weather Roundup
Issued by NWS

Home | Current Version | Previous Version | Graphics & Text | Print | Product List | Glossary On
Versions: 1 2 3 4 5 6 7 8 9 10 11 12 13 14 15 16 17 18 19 20 21 22 23 24 25 26 27 28 29 30 31 32 33 34 35 36 37 38 39 40 41 42 43 44 45 46 47 48 49 50
259
ASUS43 KDTX 280801
RWRMI
MICHIGAN HOURLY REGIONAL WEATHER ROUNDUP
NATIONAL WEATHER SERVICE DETROIT/PONTIAC MI
400 AM EDT SAT MAY 28 2016

NOTE: "FAIR" INDICATES FEW OR NO CLOUDS BELOW 12,000 FEET WITH NO
SIGNIFICANT WEATHER AND/OR OBSTRUCTION TO VISIBILITY.

MIZ047>049-052>055-059>063-066>070-074>076-081>083-280900-
SOUTHEAST LOWER MICHIGAN

CITY           SKY/WX    TMP DP  RH WIND       PRES   REMARKS
ADRIAN         CLEAR     69  61  75 SW5       29.99S
ALMA           CLOUDY    69  64  84 SW9       29.95R
ANN ARBOR      CLEAR     61  60  97 CALM      29.98S
BAD AXE        CLOUDY    70  63  78 S7        29.97S
CARO           CLEAR     71  63  76 S5        29.95F
DETROIT CITY   CLEAR     71  61  70 SW6       29.99R
DETROIT        MOCLDY    68  63  84 S3        29.99S
FLINT          PTCLDY    74  61  63 S7        29.96F
GROSSE ILE     CLEAR     66  63  88 CALM      29.98S
HILLSDALE      CLEAR     69  57  64 S3        29.99S
HOWELL         CLEAR     70  61  72 S7        29.98S

CITY           SKY/WX    TMP DP  RH WIND       PRES   REMARKS
JACKSON        CLEAR     71  61  70 S8        29.98R
LAMBERTVILLE   PTCLDY    71  62  71 SW3       29.99S
LANSING        PTCLDY    70  60  70 S7        29.96R
LAPEER         FAIR      69  60  73 SE7       29.98F
MASON          PTCLDY    69  61  76 SE7       29.97R
MONROE         PTCLDY    69  62  78 S10       29.98S
MT. CLEMENS    CLEAR     63  62  96 CALM      29.98S
PONTIAC        CLEAR     68  61  78 S3        29.99S
PORT HOPE        N/A     71  63  75 SE6       29.94F
PORT HURON     CLEAR     61  59  94 CALM      30.00S FOG
TRI CITIES     CLOUDY    75  63  66 S8        29.94S
MIDLAND        FAIR      69  66  91 CALM      29.93S
TROY           CLEAR     70  62  78 CALM      30.01S
SAGINAW HB     PTCLDY    72  61  68 S7        29.94S
$$
MIZ043>046-050>051-056>058-064>065-071>073-077>080-280900-
SOUTHWEST LOWER MICHIGAN

CITY           SKY/WX    TMP DP  RH WIND       PRES   REMARKS
BATTLE CREEK   PTCLDY    68  59  73 S8        29.96S
BENTON HARBOR  CLOUDY    70  65  84 S6        29.91R
BIG RAPIDS     CLOUDY    67  67  98 S5        29.93S
COLDWATER      CLEAR     69  61  75 S5        29.97S
FREMONT        FAIR      67  67 100 S5        29.91S
HOLLAND        CLOUDY    69  65  86 S7        29.92S
GRAND RAPIDS   PTCLDY    69  64  84 S6        29.93S
IONIA          FAIR      68  59  73 S5        29.94S
KALAMAZOO      PTCLDY    72  59  63 S5        29.95S
LUDINGTON      PTCLDY    69  65  88 S14G20    29.88S
MARSHALL       CLEAR     71  60  69 S6        29.96S
MOUNT PLEASANT CLOUDY    67  66  97 CALM      29.94R
MUSKEGON       CLOUDY    72  63  73 S10       29.90F
SOUTH HAVEN    CLOUDY    70  66  89 S6        29.92R
$$
MIZ016>042-280900-
NORTHERN LOWER MICHIGAN

CITY           SKY/WX    TMP DP  RH WIND       PRES   REMARKS
ALPENA         RAIN      63  62  97 E8        29.94F FOG
BEAVER ISLAND  CLOUDY    62  62  97 E5        29.88S
BELLAIRE       CLOUDY    69  65  88 CALM      29.89F
CADILLAC       CLOUDY    67  65  92 S5        29.93S
CHARLEVOIX     CLOUDY    68  66  94 SE6       29.92S
FRANKFORT      CLOUDY    70  66  88 S8        29.86S
GAYLORD        CLOUDY    67  64  90 S7        29.94F
GRAYLING       CLOUDY    66  65  99 E5        29.95F FOG
HARBOR SPRINGS CLOUDY    68  65  89 S3        29.90F
HOUGHTON LAKE  CLOUDY    65  64  97 E3        29.95S FOG
MANISTEE       CLOUDY    68  63  83 S9        29.88S
OSCODA         CLOUDY    63  59  87 NW3       29.95F
PELLSTON       CLOUDY    67  64  90 SE8       29.91S
ROGERS CITY    CLOUDY    65  62  88 S5        29.94F
TRAVERSE CITY  CLOUDY    70  66  87 SE6       29.87S
$$
MIZ007>008-015-280900-
EASTERN UPPER MICHIGAN

CITY           SKY/WX    TMP DP  RH WIND       PRES   REMARKS
KINROSS          N/A     61  61 100 E10       29.92F
MACKINAC ISLAN LGT SNOW  53  53 100 E9        29.91F
NEWBERRY       LGT RAIN  62  61  97 E7        29.88F
S. S. MARIE    LGT RAIN  61  59  93 E8        29.93F FOG
MUNISING         N/A     64  63  96 S7        29.82F
$$
MIZ004>006-011>014-085-280900-
CENTRAL UPPER MICHIGAN

CITY           SKY/WX    TMP DP  RH WIND       PRES   REMARKS
MANISTIQUE     LGT RAIN  60  60  97 SE10      29.85F
ESCANABA         N/A     61  59  94 S5        29.82S
MENOMINEE      CLOUDY    61  61 100 SE3       29.80F FOG
SAWYER-GWINN   FOG       62  61  96 S10       29.82F VSB 1/2
$$
MIZ001>003-009>011-084-280900-
WESTERN UPPER MICHIGAN

CITY           SKY/WX    TMP DP  RH WIND       PRES   REMARKS
IRON MOUNTAIN  FOG       62  61  96 SE5       29.80F VSB 1/2
HOUGHTON       FOG       52  51  97 NE5       29.80F VSB 1/4
COPPER HARBOR    N/A     49  49 100 CALM      29.82F
IRONWOOD       CLOUDY    61  59  94 CALM      29.74S
$$

ABBREVIATIONS USED IN REMARKS
   TC - TEMPERATURE IN CELSIUS
  WCI - WIND CHILL INDEX
   HX - HEAT INDEX
  VSB - VISIBILITY





USA.gov is the U.S. government's official web portal to all federal, state and local government web resources and services.